Location: *
(37.5724°S, 58.0067°E)
Time: 19:41:44
(UTC+00:00)

Envisat - Pass Details

Date: 04 December 2022
Orbit: 763 x 765 km, 98.2° (Epoch: 29 January)

Event Time Altitude Azimuth Distance (km) Brightness Sun altitude
Rises 22:29:39 0° 48° (NE) 3,226 6.2 -20.3°
Reaches altitude 10° 22:32:20 10° 61° (ENE) 2,309 5.6 -20.0°
Maximum altitude 22:36:20 24° 113° (ESE) 1,567 5.3 -19.5°
Drops below altitude 10° 22:40:22 10° 165° (SSE) 2,331 6.5 -19.0°
Sets 22:43:04 0° 178° (S) 3,265 7.1 -18.7°
